Location: Cabo di Oristano
(39.8500°N, 8.4333°E)
Time: 02:15:28
(UTC+00:00)

Meteor 2-10 Rocket - Pass Details

Date: 31 January 2023
Orbit: 733 x 885 km, 81.2° (Epoch: 01 April)

Event Time Altitude Azimuth Distance (km) Brightness Sun altitude
Rises 05:06:01 0° 208° (SSW) 3,422 6.7 -17.4°
Reaches altitude 10° 05:08:33 10° 215° (SW) 2,506 5.9 -16.9°
Maximum altitude 05:13:56 41° 285° (WNW) 1,248 4.1 -15.9°
Drops below altitude 10° 05:19:27 10° 355° (N) 2,554 6.0 -14.9°
Sets 05:22:04 0° 3° (N) 3,495 6.8 -14.4°
